Location: Newark
(40.9833°N, 0.0333°W)
Time: 03:16:47
(UTC+00:00)

Transit 2A Rocket - Pass Details

Date: 28 October 2020
Orbit: 588 x 914 km, 66.7° (Epoch: 26 November)

Event Time Altitude Azimuth Distance (km) Brightness Sun altitude
Rises 19:29:21 0° 319° (NW) 3,222 8.9 -28.6°
Reaches altitude 10° 19:32:11 10° 306° (NW) 2,230 8.1 -29.1°
Maximum altitude 19:36:14 25° 253° (WSW) 1,387 6.9 -29.9°
Enters shadow 19:38:59 15° 208° (SSW) 1,764 7.0 -30.4°
Drops below altitude 10° 19:40:00 10° 198° (SSW) 2,056 - -30.6°
Sets 19:42:31 0° 185° (S) 2,915 - -31.1°
